Location: Pacheco
(37.9835°N, 122.0752°W)
Time: 23:40:30
(UTC+00:00)

USA 308 - Pass Details

Date: 13 April 2024
Orbit: 493 x 493 km, 54.0° (Epoch: 14 March)

Event Time Altitude Azimuth Distance (km) Brightness Sun altitude
Exits shadow 12:32:13 17° 217° (SW) 1,253 4.1 -12.6°
Maximum altitude 12:35:00 73° 134° (SE) 513 2.7 -12.1°
Drops below altitude 10° 12:38:54 10° 50° (NE) 1,695 6.6 -11.4°
Sets 12:41:06 0° 49° (NE) 2,568 7.7 -11.0°
